• In Uzbekistan
  • List of Countries
  • For 7 days
  • Water Temperature
  • Satellite Maps
  • Weather Map
  • Weather Widgets
  • user-avatar
    Login

    Hourly Weather Skorodumka

    Today, 24 February, Sunday

    Time Temperature Precipitation Wind Pressure Humidity
    00:00 -5°C° 0 mm 2 mps 752 mmHg 95%
    01:00 -5°C° 0 mm 2 mps 752 mmHg 96%
    02:00 -4°C° 0 mm 2 mps 752 mmHg 96%
    03:00 -4°C° 0.1 mm 2 mps 752 mmHg 97%
    04:00 -3°C° 0.1 mm 2 mps 752 mmHg 97%
    05:00 -2°C° 0.1 mm 2 mps 752 mmHg 97%
    06:00 -2°C° 0.1 mm 2 mps 752 mmHg 97%
    07:00 -1°C° 0.1 mm 2 mps 752 mmHg 97%
    08:00 -1°C° 0.1 mm 3 mps 752 mmHg 96%
    09:00 0°C° 0 mm 3 mps 752 mmHg 97%
    10:00 0°C° 0 mm 3 mps 752 mmHg 98%
    11:00 0°C° 0 mm 3 mps 752 mmHg 99%
    12:00 0°C° 0 mm 3 mps 751 mmHg 99%
    13:00 0°C° 0 mm 3 mps 751 mmHg 99%
    14:00 0°C° 0 mm 3 mps 751 mmHg 99%
    15:00 0°C° 0 mm 3 mps 751 mmHg 98%
    16:00 0°C° 0 mm 3 mps 750 mmHg 97%
    17:00 0°C° 0 mm 3 mps 750 mmHg 96%
    18:00 0°C° 0.1 mm 3 mps 749 mmHg 96%
    19:00 0°C° 0.1 mm 3 mps 749 mmHg 95%
    20:00 0°C° 0.1 mm 3 mps 748 mmHg 95%
    21:00 -1°C° 0.4 mm 4 mps 747 mmHg 95%
    22:00 -1°C° 0.4 mm 4 mps 746 mmHg 95%
    23:00 -1°C° 0.4 mm 4 mps 745 mmHg 95%

    Tomorrow, 25 February, Monday

    Time Temperature Precipitation Wind Pressure Humidity
    00:00 -1°C° 0.1 mm 4 mps 744 mmHg 94%
    01:00 -1°C° 0.1 mm 4 mps 744 mmHg 93%
    02:00 -1°C° 0.1 mm 5 mps 743 mmHg 92%
    03:00 -1°C° 0.1 mm 5 mps 743 mmHg 92%
    04:00 -1°C° 0.1 mm 5 mps 742 mmHg 91%
    05:00 -2°C° 0.1 mm 6 mps 742 mmHg 91%
    06:00 -1°C° 0 mm 5 mps 742 mmHg 90%
    07:00 -1°C° 0 mm 5 mps 742 mmHg 88%
    08:00 -1°C° 0 mm 5 mps 742 mmHg 87%
    09:00 -1°C° 0.1 mm 5 mps 741 mmHg 88%
    10:00 -1°C° 0.1 mm 5 mps 741 mmHg 89%
    11:00 -2°C° 0.1 mm 6 mps 741 mmHg 90%
    12:00 -1°C° 0.1 mm 5 mps 740 mmHg 90%
    13:00 -1°C° 0.1 mm 5 mps 740 mmHg 90%
    14:00 -1°C° 0.1 mm 5 mps 740 mmHg 90%
    15:00 -1°C° 0.1 mm 5 mps 740 mmHg 90%
    16:00 -1°C° 0.1 mm 4 mps 740 mmHg 90%
    17:00 -1°C° 0.1 mm 4 mps 740 mmHg 90%
    18:00 -1°C° 0.1 mm 4 mps 740 mmHg 91%
    19:00 -1°C° 0.1 mm 4 mps 740 mmHg 91%
    20:00 -2°C° 0.1 mm 4 mps 740 mmHg 92%
    21:00 -2°C° 0 mm 4 mps 740 mmHg 91%
    22:00 -1°C° 0 mm 4 mps 740 mmHg 91%
    23:00 -1°C° 0 mm 4 mps 741 mmHg 91%

    Day after tomorrow, 26 February, Tuesday

    Time Temperature Precipitation Wind Pressure Humidity
    00:00 -2°C° 0.1 mm 4 mps 741 mmHg 90%
    01:00 -2°C° 0.1 mm 4 mps 741 mmHg 89%
    02:00 -2°C° 0.1 mm 4 mps 741 mmHg 88%
    03:00 -2°C° 0 mm 4 mps 741 mmHg 89%
    04:00 -2°C° 0 mm 4 mps 741 mmHg 90%
    05:00 -1°C° 0 mm 3 mps 740 mmHg 91%
    06:00 -1°C° 0.2 mm 3 mps 740 mmHg 92%
    07:00 -1°C° 0.2 mm 3 mps 740 mmHg 93%
    08:00 -1°C° 0.2 mm 3 mps 740 mmHg 93%
    09:00 -2°C° 0.2 mm 4 mps 740 mmHg 92%
    10:00 -2°C° 0.2 mm 4 mps 740 mmHg 91%
    11:00 -2°C° 0.2 mm 4 mps 741 mmHg 90%
    12:00 -2°C° 0 mm 5 mps 741 mmHg 87%
    13:00 -4°C° 0 mm 5 mps 742 mmHg 84%
    14:00 -4°C° 0 mm 5 mps 742 mmHg 81%
    15:00 -4°C° 0 mm 5 mps 743 mmHg 83%
    16:00 -5°C° 0 mm 5 mps 743 mmHg 84%
    17:00 -4°C° 0 mm 4 mps 744 mmHg 86%
    18:00 -6°C° 0 mm 5 mps 745 mmHg 87%
    19:00 -6°C° 0 mm 5 mps 746 mmHg 87%
    20:00 -6°C° 0 mm 5 mps 747 mmHg 87%
    21:00 -7°C° 0 mm 5 mps 747 mmHg 87%
    22:00 -7°C° 0 mm 4 mps 748 mmHg 86%
    23:00 -8°C° 0 mm 4 mps 748 mmHg 86%

    27 February, Wednesday

    Time Temperature Precipitation Wind Pressure Humidity
    00:00 -9°C° 0 mm 4 mps 749 mmHg 86%
    01:00 -10°C° 0 mm 4 mps 749 mmHg 86%
    02:00 -10°C° 0 mm 4 mps 750 mmHg 86%
    03:00 -10°C° 0 mm 3 mps 750 mmHg 87%
    04:00 -12°C° 0 mm 3 mps 750 mmHg 87%
    05:00 -12°C° 0 mm 2 mps 750 mmHg 88%
    06:00 -12°C° 0 mm 2 mps 750 mmHg 89%
    07:00 -12°C° 0 mm 2 mps 750 mmHg 91%
    08:00 -11°C° 0 mm 1 mps 750 mmHg 92%
    09:00 -10°C° 0 mm 1 mps 749 mmHg 88%
    10:00 -9°C° 0 mm 1 mps 749 mmHg 84%
    11:00 -9°C° 0 mm 2 mps 748 mmHg 81%
    12:00 -8°C° 0 mm 2 mps 747 mmHg 81%
    13:00 -8°C° 0 mm 3 mps 746 mmHg 82%
    14:00 -7°C° 0 mm 3 mps 745 mmHg 83%
    15:00 -7°C° 0.1 mm 3 mps 744 mmHg 84%
    16:00 -8°C° 0.1 mm 4 mps 743 mmHg 86%
    17:00 -7°C° 0.1 mm 4 mps 742 mmHg 87%
    18:00 -7°C° 0.2 mm 4 mps 742 mmHg 89%
    19:00 -5°C° 0.2 mm 4 mps 741 mmHg 91%
    20:00 -4°C° 0.2 mm 3 mps 740 mmHg 92%
    21:00 -4°C° 0 mm 3 mps 740 mmHg 93%
    22:00 -4°C° 0 mm 3 mps 739 mmHg 94%
    23:00 -4°C° 0 mm 3 mps 739 mmHg 94%

    28 February, Thursday

    Time Temperature Precipitation Wind Pressure Humidity
    00:00 -4°C° 0 mm 3 mps 738 mmHg 93%
    01:00 -2°C° 0 mm 3 mps 738 mmHg 93%
    02:00 -3°C° 0 mm 4 mps 738 mmHg 92%
    03:00 -3°C° 0 mm 4 mps 737 mmHg 92%
    04:00 -3°C° 0 mm 4 mps 737 mmHg 93%
    05:00 -3°C° 0 mm 4 mps 736 mmHg 93%
    06:00 -3°C° 0 mm 4 mps 736 mmHg 92%
    07:00 -3°C° 0 mm 4 mps 735 mmHg 92%
    08:00 -3°C° 0 mm 4 mps 735 mmHg 91%
    09:00 -3°C° 0 mm 4 mps 734 mmHg 91%
    10:00 -2°C° 0 mm 4 mps 734 mmHg 90%
    11:00 -2°C° 0 mm 4 mps 734 mmHg 90%
    12:00 -1°C° 0 mm 3 mps 733 mmHg 91%
    13:00 0°C° 0 mm 3 mps 733 mmHg 92%
    14:00 0°C° 0 mm 3 mps 732 mmHg 93%
    15:00 -1°C° 0.1 mm 2 mps 732 mmHg 93%
    16:00 -1°C° 0.1 mm 2 mps 732 mmHg 94%
    17:00 -2°C° 0.1 mm 2 mps 731 mmHg 95%
    18:00 0°C° 0.1 mm 1 mps 731 mmHg 95%
    19:00 0°C° 0.1 mm 1 mps 731 mmHg 96%
    20:00 0°C° 0.1 mm 1 mps 731 mmHg 97%
    21:00 -1°C° 0 mm 1 mps 731 mmHg 97%
    22:00 -1°C° 0 mm 1 mps 730 mmHg 97%
    23:00 -2°C° 0 mm 1 mps 730 mmHg 96%

    1 March, Friday

    Time Temperature Precipitation Wind Pressure Humidity
    00:00 -3°C° 0 mm 1 mps 730 mmHg 96%
    01:00 -3°C° 0 mm 1 mps 730 mmHg 96%
    02:00 -4°C° 0 mm 0 mps 730 mmHg 96%
    03:00 -4°C° 0 mm 0 mps 731 mmHg 95%
    04:00 -4°C° 0 mm 1 mps 731 mmHg 95%
    05:00 -4°C° 0 mm 1 mps 731 mmHg 95%
    06:00 -4°C° 0 mm 0 mps 732 mmHg 95%
    07:00 -4°C° 0 mm 0 mps 732 mmHg 95%
    08:00 -3°C° 0 mm 0 mps 732 mmHg 94%
    09:00 -2°C° 0.1 mm 0 mps 733 mmHg 94%
    10:00 -1°C° 0.1 mm 0 mps 733 mmHg 93%
    11:00 -1°C° 0.1 mm 0 mps 733 mmHg 93%
    12:00 0°C° 0 mm 0 mps 734 mmHg 93%
    13:00 0°C° 0 mm 0 mps 734 mmHg 94%
    14:00 0°C° 0 mm 0 mps 734 mmHg 94%
    15:00 0°C° 0.1 mm 0 mps 735 mmHg 95%
    16:00 0°C° 0.1 mm 1 mps 735 mmHg 95%
    17:00 0°C° 0.1 mm 1 mps 736 mmHg 96%
    18:00 -2°C° 0.6 mm 2 mps 736 mmHg 96%
    19:00 -2°C° 0.6 mm 3 mps 737 mmHg 96%
    20:00 -4°C° 0.6 mm 3 mps 738 mmHg 96%
    21:00 -7°C° 0.5 mm 4 mps 738 mmHg 94%
    22:00 -10°C° 0.5 mm 5 mps 739 mmHg 93%
    23:00 -12°C° 0.5 mm 6 mps 740 mmHg 91%
    Show more